This demonstration page uses our WeatherBlox Daily Observations layout. Learn more.

41.86663, -103.66717

Hourly Observations for June 11, 2019

Temp ( °F °C ) Dew Point ( °F °C ) Humidity (%) Winds ( mph kmh ) Pressure ( in mb ) Visibility ( mi km ) Precip ( " mm )
12:53 am 00:53 Clear 60 15.6 42 5.6 52 52 N 5 7 30.02 1017 10 16.0934 0 0
1:53 am 01:53 Clear 56 13.3 41 5 57 57 VRB 3 6 30.02 1017 10 16.0934 0 0
2:53 am 02:53 Clear 52 11.1 41 5 66 66 N 8 13 30.01 1016 10 16.0934 0 0
3:53 am 03:53 Clear 48 8.9 42 5.6 80 80 W 9 15 30.02 1017 10 16.0934 0 0
4:53 am 04:53 Clear 48 8.9 43 6.1 83 83 WNW 6 9 30.03 1017 10 16.0934 0 0
5:53 am 05:53 Sunny 46 7.8 43 6.1 89 89 WNW 7 11 30.07 1018 10 16.0934 0 0
6:53 am 06:53 Sunny 52 11.1 44 6.7 75 75 WNW 8 13 30.06 1018 10 16.0934 0 0
7:53 am 07:53 Sunny 56 13.3 47 8.3 72 72 NW 8 13 30.08 1019 10 16.0934 0 0
8:53 am 08:53 Partly Cloudy 64 17.8 45 7.2 50 50 NNE 14 22 30.09 1019 10 16.0934 0 0
9:53 am 09:53 Cloudy 63 17.2 45 7.2 52 52 NNE 18 30 30.1 1019 10 16.0934 0 0
10:53 am 10:53 Mostly Cloudy 64 17.8 46 7.8 52 52 N 14 22 30.11 1020 10 16.0934 0 0
11:53 am 11:53 Sunny 69 20.6 50 10 51 51 NW 20 31 30.09 1019 10 16.0934 0 0
12:53 pm 12:53 Cloudy 67 19.4 49 9.4 53 53 NNW 16 26 30.1 1019 10 16.0934 0 0
1:53 pm 13:53 Mostly Sunny 68 20 49 9.4 51 51 NW 24 39 30.1 1019 10 16.0934 0 0
2:53 pm 14:53 Mostly Sunny 67 19.4 50 10 55 55 NW 18 30 30.09 1019 10 16.0934 0 0
3:53 pm 15:53 Cloudy 66 18.9 50 10 56 56 NW 13 20 30.09 1019 10 16.0934 0 0
4:53 pm 16:53 Cloudy with Light Rain 67 19.4 48 8.9 51 51 NW 18 30 30.09 1019 10 16.0934 0 0.0254
5:53 pm 17:53 Partly Cloudy 65 18.3 50 10 59 59 NNE 22 35 30.12 1020 10 16.0934 0 0.0254
6:53 pm 18:53 Mostly Cloudy 64 17.8 46 7.8 52 52 NNW 14 22 30.14 1021 10 16.0934 0 0
7:53 pm 19:53 Mostly Cloudy 61 16.1 48 8.9 63 63 NW 9 15 30.14 1021 10 16.0934 0 0
8:53 pm 20:53 Mostly Clear 58 14.4 44 6.7 60 60 N 9 15 30.16 1021 10 16.0934 0 0
9:53 pm 21:53 Mostly Cloudy 54 12.2 48 8.9 80 80 NNE 9 15 30.19 1023 10 16.0934 0 0
10:53 pm 22:53 Mostly Cloudy 52 11.1 46 7.8 80 80 WNW 5 7 30.21 1023 10 16.0934 0 0
11:53 pm 23:53 Mostly Cloudy 52 11.1 46 7.8 80 80 NW 3 6 30.21 1023 10 16.0934 0 0

Powered by AerisWeather